TimeMST,TemperatureF,Dew PointF,Humidity,Sea Level PressureIn,VisibilityMPH,Wind Direction,Wind SpeedMPH,Gust SpeedMPH,PrecipitationIn,Events,Conditions,WindDirDegrees,DateUTC
12:55 AM,39.9,25.0,55,29.88,10.0,NW,10.4,-,N/A,,Clear,310,2013-01-19 07:55:00
1:55 AM,37.9,24.1,57,29.90,10.0,WNW,10.4,-,N/A,,Clear,290,2013-01-19 08:55:00
2:55 AM,35.1,23.0,61,29.94,10.0,WNW,10.4,-,N/A,,Clear,300,2013-01-19 09:55:00
3:55 AM,35.1,23.0,61,29.96,10.0,WNW,10.4,-,N/A,,Clear,300,2013-01-19 10:55:00
4:55 AM,37.9,24.1,57,29.97,10.0,WNW,15.0,-,N/A,,Clear,300,2013-01-19 11:55:00
5:55 AM,34.0,24.1,67,30.00,10.0,WNW,12.7,-,N/A,,Clear,290,2013-01-19 12:55:00
6:55 AM,30.9,24.1,76,30.05,10.0,West,9.2,-,N/A,,Clear,280,2013-01-19 13:55:00
7:55 AM,35.1,25.0,67,30.07,10.0,WNW,12.7,-,N/A,,Clear,300,2013-01-19 14:55:00
8:55 AM,39.9,26.1,58,30.10,10.0,NW,16.1,23.0,N/A,,Clear,310,2013-01-19 15:55:00
9:55 AM,43.0,27.0,53,30.13,10.0,NW,16.1,-,N/A,,Clear,310,2013-01-19 16:55:00
10:55 AM,44.1,27.0,51,30.15,10.0,NW,13.8,-,N/A,,Clear,310,2013-01-19 17:55:00
11:55 AM,43.0,27.0,53,30.16,10.0,NNW,17.3,-,N/A,,Clear,330,2013-01-19 18:55:00
12:55 PM,43.0,28.0,56,30.17,10.0,NNW,20.7,-,N/A,,Partly Cloudy,330,2013-01-19 19:55:00
1:55 PM,39.0,27.0,62,30.21,10.0,NNW,13.8,-,N/A,,Overcast,340,2013-01-19 20:55:00
2:55 PM,39.0,27.0,62,30.25,10.0,NNW,13.8,-,N/A,,Overcast,340,2013-01-19 21:55:00
3:55 PM,34.0,25.0,70,30.28,10.0,NNE,17.3,-,N/A,,Overcast,30,2013-01-19 22:55:00
4:55 PM,30.0,21.9,72,30.32,10.0,North,13.8,-,N/A,,Overcast,10,2013-01-19 23:55:00
5:55 PM,27.0,15.1,61,30.33,10.0,North,12.7,-,N/A,,Overcast,10,2013-01-20 00:55:00
6:55 PM,24.1,15.1,69,30.35,10.0,NNE,8.1,-,N/A,,Partly Cloudy,30,2013-01-20 01:55:00
7:55 PM,19.9,12.9,74,30.36,10.0,ENE,12.7,-,N/A,,Clear,70,2013-01-20 02:55:00
8:55 PM,19.0,10.9,71,30.35,10.0,East,6.9,-,N/A,,Clear,100,2013-01-20 03:55:00
9:55 PM,18.0,10.9,74,30.35,10.0,East,5.8,-,N/A,,Clear,90,2013-01-20 04:55:00
10:55 PM,16.0,10.0,77,30.33,10.0,East,6.9,-,N/A,,Clear,90,2013-01-20 05:55:00
11:55 PM,15.1,9.0,77,30.30,10.0,East,10.4,-,N/A,,Clear,90,2013-01-20 06:55:00